Content
SEND FEEDBACK

Daily
Averages
Monthly
Summary
United States of America

CAMP QUEZON, GUAM


Home > North America > United States > Guam
Elevation: 82 meters     Latitude: 13 28N     Longitude: 144 48E

WEATHER
 
SELECT A DAY
Number of Records: 209,165;   Date Range: 1/1/95 - 8/30/14
 
SHARE

PRINT THIS DATA

[ ← Previous Day ]
WEATHER ALMANAC - 8 OCTOBER, 2013
[ Next Day → ]
[ °F ]   °C
We're sorry. There is no daily almanac available for Camp Quezon, Guam on 8 October, 2013.
WEATHER BY HOUR - 8 OCTOBER, 2013
[ °F ]   °C
Local TimeTemperatureDewpointHumidityBarometerVisibilityWind DirectionWind SpeedGust SpeedPrecipitationEventsConditions
1:54 AM25.6 °C25 °C96 %1005.4 hPa16.1 kmCalmClear
2:54 AM26.1 °C25 °C94 %1005.1 hPa16.1 kmCalmClear
3:54 AM25.6 °C24.4 °C93 %1005.1 hPa16.1 kmCalmClear
4:54 AM25 °C24.4 °C96 %1005.1 hPa16.1 kmCalmClear
5:54 AM25 °C24.4 °C96 %1005.8 hPa16.1 kmCalmClear
6:54 AM26.1 °C25 °C94 %1006.4 hPa16.1 kmCalmClear
7:54 AM27.8 °C26.1 °C90 %1006.8 hPa16.1 kmCalmClear
8:54 AM28.3 °C25.6 °C85 %1007.5 hPa16.1 kmNNW (330°)9.3 km/hScattered Clouds
9:15 AM29 °C26 °C84 %1008.1 hPa16.1 kmNNW (340°)9.3 km/hMostly Cloudy
9:27 AM29 °C26 °C84 %1008.1 hPa16.1 kmNNW (330°)5.6 km/hMostly Cloudy
9:34 AM29 °C25 °C79 %1008.1 hPa16.1 kmNNW (340°)5.6 km/hMostly Cloudy
9:54 AM29.4 °C25.6 °C80 %1007.5 hPa16.1 kmCalmMostly Cloudy
10:54 AM29.4 °C25 °C77 %1006.8 hPa16.1 kmNW (320°)9.3 km/hScattered Clouds
11:54 AM30 °C25 °C74 %1005.8 hPa16.1 kmNNW (340°)11.1 km/hPartly Cloudy
12:54 PM30 °C25 °C74 %1005.1 hPa16.1 kmNorth (350°)13 km/hPartly Cloudy
1:54 PM29.4 °C25 °C77 %1004.7 hPa16.1 kmNNW (340°)14.8 km/hPartly Cloudy
2:54 PM29.4 °C25.6 °C80 %1004.4 hPa16.1 kmNorth (350°)11.1 km/hPartly Cloudy
3:54 PM28.9 °C25 °C79 %1005.1 hPa16.1 kmNNW (330°)9.3 km/hPartly Cloudy
4:54 PM28.9 °C25 °C79 %1005.1 hPa16.1 kmNNW (340°)5.6 km/hPartly Cloudy
5:54 PM27.8 °C25 °C85 %1005.4 hPa16.1 kmNorth (350°)5.6 km/hPartly Cloudy
6:54 PM27.2 °C25 °C88 %1005.8 hPa16.1 kmNW (320°)5.6 km/hClear
7:54 PM27.8 °C24.4 °C82 %1006.4 hPa16.1 kmNE (50°)5.6 km/hClear
8:54 PM26.7 °C25 °C90 %1006.8 hPa16.1 kmCalmClear
9:54 PM26.7 °C25 °C90 %1007.1 hPa16.1 kmCalmClear
10:54 PM26.7 °C25 °C90 %1007.1 hPa16.1 kmCalmPartly Cloudy
11:54 PM26.1 °C25 °C94 %1007.1 hPa16.1 kmCalmClear
Hourly data recorded from PGUM, located 0 kilometers away from Camp Quezon, Guam







STORIES FROM OUR PARTNERS